Time,TemperatureF,DewpointF,PressureIn,WindDirection,WindDirectionDegrees,WindSpeedMPH,WindSpeedGustMPH,Humidity,HourlyPrecipIn,Conditions,Clouds,dailyrainin,SolarRadiationWatts/m^2,SoftwareType,DateUTC
2013-03-27 00:22:00,28.0,21.0,-100.00,SE,141,3.0,6.0,76,0.00,,,0.02,0.000000,,2013-03-27 06:22:00,
2013-03-27 00:32:00,28.0,21.0,-100.00,SE,141,3.0,6.0,76,0.00,,,0.02,0.000000,,2013-03-27 06:32:00,
2013-03-27 00:42:00,28.0,21.0,-100.00,SE,141,3.0,6.0,76,0.00,,,0.02,0.000000,,2013-03-27 06:42:00,
2013-03-27 00:52:00,28.0,21.0,-100.00,SE,141,3.0,6.0,76,0.00,,,0.02,0.000000,,2013-03-27 06:52:00,
2013-03-27 01:22:00,28.0,20.0,-100.00,ESE,104,5.0,7.0,70,0.00,,,0.02,0.000000,,2013-03-27 07:22:00,
2013-03-27 01:32:00,28.0,20.0,-100.00,ESE,104,5.0,7.0,70,0.00,,,0.02,0.000000,,2013-03-27 07:32:00,
2013-03-27 01:42:00,28.0,20.0,-100.00,ESE,104,5.0,7.0,70,0.00,,,0.02,0.000000,,2013-03-27 07:42:00,
2013-03-27 01:53:00,28.0,20.0,-100.00,ESE,104,5.0,7.0,70,0.00,,,0.02,0.000000,,2013-03-27 07:53:00,
2013-03-27 02:22:00,28.0,18.0,-100.00,East,99,3.0,7.0,67,0.00,,,0.02,0.000000,,2013-03-27 08:22:00,
2013-03-27 02:32:00,28.0,18.0,-100.00,East,99,3.0,7.0,67,0.00,,,0.02,0.000000,,2013-03-27 08:32:00,
2013-03-27 02:43:00,28.0,18.0,-100.00,East,99,3.0,7.0,67,0.00,,,0.02,0.000000,,2013-03-27 08:43:00,
2013-03-27 02:52:00,28.0,18.0,-100.00,East,99,3.0,7.0,67,0.00,,,0.02,0.000000,,2013-03-27 08:52:00,
2013-03-27 03:22:00,26.0,20.0,-100.00,NW,315,3.0,5.0,77,0.00,,,0.02,0.000000,,2013-03-27 09:22:00,
2013-03-27 03:32:00,26.0,20.0,-100.00,NW,315,3.0,5.0,77,0.00,,,0.02,0.000000,,2013-03-27 09:32:00,
2013-03-27 03:42:00,26.0,20.0,-100.00,NW,315,3.0,5.0,77,0.00,,,0.02,0.000000,,2013-03-27 09:42:00,
2013-03-27 03:52:00,26.0,20.0,-100.00,NW,315,3.0,5.0,77,0.00,,,0.02,0.000000,,2013-03-27 09:52:00,
2013-03-27 04:23:00,26.0,22.0,-100.00,ENE,76,2.0,6.0,84,0.00,,,0.02,0.000000,,2013-03-27 10:23:00,
2013-03-27 04:32:00,26.0,22.0,-100.00,ENE,76,2.0,6.0,84,0.00,,,0.02,0.000000,,2013-03-27 10:32:00,
2013-03-27 04:42:00,26.0,22.0,-100.00,ENE,76,2.0,6.0,84,0.00,,,0.02,0.000000,,2013-03-27 10:42:00,
2013-03-27 04:52:00,26.0,22.0,-100.00,ENE,76,2.0,6.0,84,0.00,,,0.02,0.000000,,2013-03-27 10:52:00,
2013-03-27 05:22:00,25.0,23.0,-100.00,NW,315,3.0,10.0,92,0.00,,,0.02,0.000000,,2013-03-27 11:22:00,
2013-03-27 05:32:00,25.0,23.0,-100.00,NW,315,3.0,10.0,92,0.00,,,0.02,0.000000,,2013-03-27 11:32:00,
2013-03-27 05:42:00,25.0,23.0,-100.00,NW,315,3.0,10.0,92,0.00,,,0.02,0.000000,,2013-03-27 11:42:00,
2013-03-27 05:52:00,25.0,23.0,-100.00,NW,315,3.0,10.0,92,0.00,,,0.02,0.000000,,2013-03-27 11:52:00,
2013-03-27 06:23:00,24.0,22.0,-100.00,West,265,1.0,8.0,92,0.00,,,0.02,0.000000,,2013-03-27 12:23:00,
2013-03-27 06:32:00,24.0,22.0,-100.00,West,265,1.0,8.0,92,0.00,,,0.02,0.000000,,2013-03-27 12:32:00,
2013-03-27 06:43:00,24.0,22.0,-100.00,West,265,1.0,8.0,92,0.00,,,0.02,0.000000,,2013-03-27 12:43:00,
2013-03-27 06:52:00,24.0,22.0,-100.00,West,265,1.0,8.0,92,0.00,,,0.02,0.000000,,2013-03-27 12:52:00,
2013-03-27 07:22:00,24.0,22.0,-100.00,ENE,76,1.0,8.0,92,0.00,,,0.02,0.000000,,2013-03-27 13:22:00,
2013-03-27 07:32:00,24.0,22.0,-100.00,ENE,76,1.0,8.0,92,0.00,,,0.02,0.000000,,2013-03-27 13:32:00,
2013-03-27 07:42:00,24.0,22.0,-100.00,ENE,76,1.0,8.0,92,0.00,,,0.02,0.000000,,2013-03-27 13:42:00,
2013-03-27 07:52:00,24.0,22.0,-100.00,ENE,76,1.0,8.0,92,0.00,,,0.02,0.000000,,2013-03-27 13:52:00,
2013-03-27 08:22:00,25.0,23.0,-100.00,SE,138,2.0,3.0,92,0.00,,,0.02,3.000000,,2013-03-27 14:22:00,
2013-03-27 08:32:00,25.0,23.0,-100.00,SE,138,2.0,3.0,92,0.00,,,0.02,3.000000,,2013-03-27 14:32:00,
2013-03-27 08:42:00,25.0,23.0,-100.00,SE,138,2.0,3.0,92,0.00,,,0.02,3.000000,,2013-03-27 14:42:00,
2013-03-27 08:52:00,25.0,23.0,-100.00,SE,138,2.0,3.0,92,0.00,,,0.02,3.000000,,2013-03-27 14:52:00,
2013-03-27 09:22:00,28.0,25.0,-100.00,SE,129,2.0,8.0,87,0.00,,,0.02,22.000000,,2013-03-27 15:22:00,
2013-03-27 09:33:00,28.0,25.0,-100.00,SE,129,2.0,8.0,87,0.00,,,0.02,22.000000,,2013-03-27 15:33:00,
2013-03-27 09:42:00,28.0,25.0,-100.00,SE,129,2.0,8.0,87,0.00,,,0.02,22.000000,,2013-03-27 15:42:00,
2013-03-27 09:52:00,28.0,25.0,-100.00,SE,129,2.0,8.0,87,0.00,,,0.02,22.000000,,2013-03-27 15:52:00,
2013-03-27 12:22:00,40.0,18.0,-100.00,NNW,329,7.0,11.0,41,-99.99,,,0.17,546.000000,,2013-03-27 18:22:00,
2013-03-27 12:32:00,40.0,18.0,-100.00,NNW,329,7.0,11.0,41,-99.99,,,0.17,546.000000,,2013-03-27 18:32:00,
2013-03-27 12:42:00,40.0,18.0,-100.00,NNW,329,7.0,11.0,41,-99.99,,,0.17,546.000000,,2013-03-27 18:42:00,
2013-03-27 12:52:00,40.0,18.0,-100.00,NNW,329,7.0,11.0,41,-99.99,,,0.17,546.000000,,2013-03-27 18:52:00,
2013-03-27 13:42:00,44.0,15.0,-100.00,NW,315,9.0,15.0,30,0.00,,,0.16,628.000000,,2013-03-27 19:42:00,
2013-03-27 13:52:00,44.0,15.0,-100.00,NW,315,9.0,15.0,30,0.00,,,0.16,628.000000,,2013-03-27 19:52:00,
2013-03-27 14:22:00,46.0,16.0,-100.00,NW,310,7.0,21.0,30,0.00,,,0.16,676.000000,,2013-03-27 20:22:00,
2013-03-27 14:32:00,46.0,16.0,-100.00,NW,310,7.0,21.0,30,0.00,,,0.16,676.000000,,2013-03-27 20:32:00,
2013-03-27 14:42:00,46.0,16.0,-100.00,NW,310,7.0,21.0,30,0.00,,,0.16,676.000000,,2013-03-27 20:42:00,
2013-03-27 14:52:00,46.0,16.0,-100.00,NW,310,7.0,21.0,30,0.00,,,0.16,676.000000,,2013-03-27 20:52:00,
2013-03-27 15:22:00,48.0,16.0,-100.00,West,277,6.0,14.0,27,0.00,,,0.16,790.000000,,2013-03-27 21:22:00,
2013-03-27 15:32:00,48.0,16.0,-100.00,West,277,6.0,14.0,27,0.00,,,0.16,790.000000,,2013-03-27 21:32:00,
2013-03-27 15:43:00,48.0,16.0,-100.00,West,277,6.0,14.0,27,0.00,,,0.16,790.000000,,2013-03-27 21:43:00,
2013-03-27 15:52:00,48.0,16.0,-100.00,West,277,6.0,14.0,27,0.00,,,0.16,790.000000,,2013-03-27 21:52:00,
2013-03-27 16:23:00,43.0,12.0,-100.00,NW,312,3.0,11.0,28,0.00,,,0.16,282.000000,,2013-03-27 22:23:00,
2013-03-27 16:33:00,43.0,12.0,-100.00,NW,312,3.0,11.0,28,0.00,,,0.16,282.000000,,2013-03-27 22:33:00,
2013-03-27 16:42:00,43.0,12.0,-100.00,NW,312,3.0,11.0,28,0.00,,,0.16,282.000000,,2013-03-27 22:42:00,
2013-03-27 16:52:00,43.0,12.0,-100.00,NW,312,3.0,11.0,28,0.00,,,0.16,282.000000,,2013-03-27 22:52:00,
2013-03-27 17:22:00,45.0,13.0,-100.00,West,271,6.0,12.0,27,0.00,,,0.16,370.000000,,2013-03-27 23:22:00,
2013-03-27 17:32:00,45.0,13.0,-100.00,West,271,6.0,12.0,27,0.00,,,0.16,370.000000,,2013-03-27 23:32:00,
2013-03-27 17:42:00,45.0,13.0,-100.00,West,271,6.0,12.0,27,0.00,,,0.16,370.000000,,2013-03-27 23:42:00,
2013-03-27 17:52:00,45.0,13.0,-100.00,West,271,6.0,12.0,27,0.00,,,0.16,370.000000,,2013-03-27 23:52:00,
2013-03-27 18:22:00,40.0,16.0,-100.00,West,277,6.0,13.0,37,0.00,,,0.16,236.000000,,2013-03-28 00:22:00,
2013-03-27 18:32:00,40.0,16.0,-100.00,West,277,6.0,13.0,37,0.00,,,0.16,236.000000,,2013-03-28 00:32:00,
2013-03-27 18:43:00,40.0,16.0,-100.00,West,277,6.0,13.0,37,0.00,,,0.16,236.000000,,2013-03-28 00:43:00,
2013-03-27 18:52:00,40.0,16.0,-100.00,West,277,6.0,13.0,37,0.00,,,0.16,236.000000,,2013-03-28 00:52:00,